Tracking 18980 objects as of 19-Feb-2018
HD Live streaming from Space Station
objects crossing your sky now

COSMOS 1791

Track COSMOS 1791 now!
10-day predictions
COSMOS 1791 is classified as:


NORAD ID: 17066
Int'l Code: 1986-086A
Perigee: 954.9 km
Apogee: 1,017.3 km
Inclination: 83.0 °
Period: 104.7 minutes
Semi major axis: 7357 km
RCS: 2.0797 m2 (large)
Launch date: November 13, 1986
Source: Commonwealth of Independent States (former USSR) (CIS)
Launch site: PLESETSK MISSILE AND SPACE COMPLEX (PKMTR)
aabbcc
Your satellite tracking list
Your tracking list is empty




NASA's NSSDC Master Catalog

Two Line Element Set (TLE):
1 17066U 86086A   18049.94135083 +.00000034 +00000-0 +19087-4 0  9999
2 17066 082.9506 355.3944 0042380 093.6269 330.7295 13.75759332570137
Source of the keplerian elements: AFSPC